This is the latest recevied weather packets stored in our database for station/object IT9CYW-10. If no packets are shown the sender has not sent any weather packets the latest 10 day(s).
| Time | Temp. | Humidity | Pressure | Rain* | Wind** | Luminosity | Snow |
|---|---|---|---|---|---|---|---|
| 1777302777 | 21.11° C | 60% | 998 hPa | - | - | 312 W/m² | - |
| 1777301877 | 21.11° C | 57% | 998.2 hPa | - | - | 376 W/m² | - |
| 1777300977 | 20.56° C | 60% | 998.2 hPa | - | - | 428 W/m² | - |
| 1777300076 | 20° C | 60% | 998.2 hPa | - | - | 245 W/m² | - |
| 1777298275 | 20.56° C | 57% | 998.5 hPa | - | - | 244 W/m² | - |
| 1777297375 | 21.11° C | 53% | 998.7 hPa | - | - | 335 W/m² | - |
| 1777296475 | 21.67° C | 51% | 998.7 hPa | - | - | 668 W/m² | - |
| 1777295575 | 21.67° C | 51% | 998.9 hPa | - | - | 750 W/m² | - |
| 1777294675 | 21.11° C | 52% | 999 hPa | - | - | 630 W/m² | - |
| 1777293775 | 21.67° C | 51% | 999.2 hPa | - | - | 603 W/m² | - |
| 1777292875 | 22.22° C | 48% | 999 hPa | - | - | 774 W/m² | - |
| 1777291974 | 22.22° C | 48% | 999.2 hPa | - | - | 830 W/m² | - |
| 1777291073 | 21.67° C | 48% | 999 hPa | - | - | 831 W/m² | - |
| 1777290173 | 22.78° C | 47% | 999.2 hPa | - | - | 911 W/m² | - |
| 1777288374 | 21.67° C | 48% | 999.2 hPa | - | - | 848 W/m² | - |
| 1777287474 | 22.78° C | 46% | 999.5 hPa | - | - | 910 W/m² | - |
| 1777286574 | 22.22° C | 44% | 999.5 hPa | - | - | 808 W/m² | - |
| 1777285673 | 21.67° C | 46% | 999.7 hPa | - | - | 844 W/m² | - |
| 1777284773 | 22.22° C | 43% | 999.9 hPa | - | - | 863 W/m² | - |
| 1777283873 | 21.67° C | 47% | 1000 hPa | - | - | 808 W/m² | - |
| 1777282973 | 22.22° C | 47% | 1000.2 hPa | - | - | 720 W/m² | - |
| 1777282073 | 21.67° C | 44% | 1000.2 hPa | - | - | 766 W/m² | - |
| 1777281173 | 22.22° C | 44% | 1000.4 hPa | - | - | 738 W/m² | - |
| 1777280273 | 22.22° C | 38% | 1000.2 hPa | - | - | 586 W/m² | - |
| 1777279373 | 22.78° C | 32% | 1000.5 hPa | - | - | 536 W/m² | - |
* Rain since midnight (hover to see other rain measurements)
** Current wind speed in m/s (hover to see current wind gust speed)